Tracking 30701 objects as of 14-Jun-2025
HD Live streaming from Space Station
objects crossing your sky now

FENGYUN 1C DEB

Track FENGYUN 1C DEB now!
10-day predictions


NORAD ID: 30448
Int'l Code: 1999-025AFK
Perigee: 774.2 km
Apogee: 803.8 km
Inclination: 98.8 °
Period: 100.5 minutes
Semi major axis: 7160 km
RCS: 0.055 m2 (small)
Launch date: May 10, 1999
Source: People's Republic of China (PRC)
Launch site: Taiyaun Space Center, China (TSC)

Note: This is SATELLITE DEBRIS
Your satellite tracking list
Your tracking list is empty




NASA's NSSDC Master Catalog

Two Line Element Set (TLE):
1 30448U 99025AFK 25165.50557593  .00004791  00000-0  17637-2 0  9999
2 30448  98.8339 253.3161 0020628 177.9807 199.2578 14.32952260947419
Source of the keplerian elements: AFSPC